Time,TemperatureF,DewpointF,PressureIn,WindDirection,WindDirectionDegrees,WindSpeedMPH,WindSpeedGustMPH,Humidity,HourlyPrecipIn,Conditions,Clouds,dailyrainin,SoftwareType,DateUTC
2013-09-02 00:03:00,68.9,68.0,29.81,WNW,287,0.0,0.0,97,0.00,,,0.00,Wunderground v.1.15,2013-09-02 05:03:00,
2013-09-02 00:08:00,68.8,67.9,29.81,ESE,123,0.0,0.0,97,0.00,,,0.01,Wunderground v.1.15,2013-09-02 05:08:00,
2013-09-02 00:13:00,68.8,67.9,29.81,ESE,123,0.0,0.0,97,0.00,,,0.01,Wunderground v.1.15,2013-09-02 05:13:00,
2013-09-02 00:18:00,68.8,67.9,29.81,ESE,118,0.0,0.0,97,0.00,,,0.01,Wunderground v.1.15,2013-09-02 05:18:00,
2013-09-02 00:24:00,68.7,67.8,29.81,ESE,118,0.0,0.0,97,0.00,,,0.01,Wunderground v.1.15,2013-09-02 05:24:00,
2013-09-02 00:30:00,68.7,67.8,29.81,SSE,156,0.0,1.0,97,0.00,,,0.01,Wunderground v.1.15,2013-09-02 05:30:00,
2013-09-02 00:36:00,68.8,67.9,29.81,South,172,0.0,1.0,97,0.00,,,0.01,Wunderground v.1.15,2013-09-02 05:36:00,
2013-09-02 00:41:00,68.7,67.8,29.81,South,172,0.0,0.0,97,0.00,,,0.01,Wunderground v.1.15,2013-09-02 05:41:00,
2013-09-02 00:46:00,68.7,67.8,29.81,South,172,0.0,0.0,97,0.00,,,0.01,Wunderground v.1.15,2013-09-02 05:46:00,
2013-09-02 00:52:00,68.7,67.8,29.81,South,170,0.0,0.0,97,0.00,,,0.01,Wunderground v.1.15,2013-09-02 05:52:00,
2013-09-02 00:57:00,68.6,67.7,29.81,South,170,0.0,0.0,97,0.00,,,0.01,Wunderground v.1.15,2013-09-02 05:57:00,
2013-09-02 01:02:00,68.7,67.8,29.81,South,170,0.0,0.0,97,0.00,,,0.01,Wunderground v.1.15,2013-09-02 06:02:00,
2013-09-02 01:07:00,68.7,67.8,29.81,South,170,0.0,0.0,97,0.00,,,0.01,Wunderground v.1.15,2013-09-02 06:07:00,
2013-09-02 01:12:00,68.6,67.7,29.81,South,170,0.0,0.0,97,0.00,,,0.01,Wunderground v.1.15,2013-09-02 06:12:00,
2013-09-02 01:17:00,68.5,67.6,29.81,South,170,0.0,0.0,97,0.00,,,0.01,Wunderground v.1.15,2013-09-02 06:17:00,
2013-09-02 01:23:00,68.5,67.6,29.81,South,170,0.0,0.0,97,0.00,,,0.01,Wunderground v.1.15,2013-09-02 06:23:00,
2013-09-02 01:28:00,68.4,67.5,29.81,South,170,0.0,0.0,97,0.00,,,0.01,Wunderground v.1.15,2013-09-02 06:28:00,
2013-09-02 01:33:00,68.3,67.4,29.81,South,170,0.0,0.0,97,0.00,,,0.01,Wunderground v.1.15,2013-09-02 06:33:00,
2013-09-02 01:38:00,68.2,67.3,29.81,South,170,0.0,0.0,97,0.00,,,0.01,Wunderground v.1.15,2013-09-02 06:38:00,
2013-09-02 01:44:00,68.2,67.3,29.80,South,170,0.0,0.0,97,0.00,,,0.01,Wunderground v.1.15,2013-09-02 06:44:00,
2013-09-02 01:49:00,68.1,67.2,29.80,South,170,0.0,0.0,97,0.00,,,0.01,Wunderground v.1.15,2013-09-02 06:49:00,
2013-09-02 01:54:00,68.2,67.3,29.80,SE,124,0.0,1.0,97,0.00,,,0.01,Wunderground v.1.15,2013-09-02 06:54:00,
2013-09-02 02:00:00,68.3,67.4,29.80,SE,124,0.0,0.0,97,0.00,,,0.01,Wunderground v.1.15,2013-09-02 07:00:00,
2013-09-02 02:06:00,68.1,67.2,29.80,SE,124,0.0,0.0,97,0.00,,,0.01,Wunderground v.1.15,2013-09-02 07:06:00,
2013-09-02 02:12:00,68.1,67.2,29.80,SE,124,0.0,0.0,97,0.00,,,0.01,Wunderground v.1.15,2013-09-02 07:12:00,
2013-09-02 02:17:00,68.1,67.2,29.80,SE,124,0.0,0.0,97,0.00,,,0.01,Wunderground v.1.15,2013-09-02 07:17:00,
2013-09-02 02:22:00,68.1,67.2,29.80,SE,124,0.0,0.0,97,0.00,,,0.01,Wunderground v.1.15,2013-09-02 07:22:00,
2013-09-02 02:28:00,68.1,67.2,29.80,SE,124,0.0,0.0,97,0.00,,,0.01,Wunderground v.1.15,2013-09-02 07:28:00,
2013-09-02 02:33:00,68.1,67.2,29.80,SE,124,0.0,0.0,97,0.00,,,0.01,Wunderground v.1.15,2013-09-02 07:33:00,
2013-09-02 02:39:00,68.1,67.2,29.80,SE,124,0.0,0.0,97,0.00,,,0.01,Wunderground v.1.15,2013-09-02 07:39:00,
2013-09-02 02:44:00,68.0,67.1,29.80,SE,124,0.0,0.0,97,0.00,,,0.01,Wunderground v.1.15,2013-09-02 07:44:00,
2013-09-02 02:49:00,68.0,67.1,29.79,SE,124,0.0,0.0,97,0.00,,,0.01,Wunderground v.1.15,2013-09-02 07:49:00,
2013-09-02 02:55:00,68.0,67.1,29.79,SE,124,0.0,0.0,97,0.00,,,0.01,Wunderground v.1.15,2013-09-02 07:55:00,
2013-09-02 03:00:00,68.0,67.1,29.79,SE,124,0.0,0.0,97,0.00,,,0.01,Wunderground v.1.15,2013-09-02 08:00:00,
2013-09-02 03:06:00,68.0,67.1,29.80,SE,124,0.0,0.0,97,0.00,,,0.01,Wunderground v.1.15,2013-09-02 08:06:00,
2013-09-02 03:11:00,68.0,67.1,29.80,SE,124,0.0,0.0,97,0.00,,,0.01,Wunderground v.1.15,2013-09-02 08:11:00,
2013-09-02 03:16:00,67.8,66.9,29.80,SE,124,0.0,0.0,97,0.00,,,0.01,Wunderground v.1.15,2013-09-02 08:16:00,
2013-09-02 03:21:00,67.7,66.8,29.80,SE,124,0.0,0.0,97,0.00,,,0.01,Wunderground v.1.15,2013-09-02 08:21:00,
2013-09-02 03:26:00,67.6,66.7,29.80,SE,124,0.0,0.0,97,0.00,,,0.01,Wunderground v.1.15,2013-09-02 08:26:00,
2013-09-02 03:32:00,67.7,66.8,29.80,NNW,343,0.0,0.0,97,0.00,,,0.01,Wunderground v.1.15,2013-09-02 08:32:00,
2013-09-02 03:37:00,67.6,66.7,29.80,NNW,343,0.0,0.0,97,0.00,,,0.01,Wunderground v.1.15,2013-09-02 08:37:00,
2013-09-02 03:42:00,67.6,66.7,29.80,NNW,342,0.0,0.0,97,0.00,,,0.01,Wunderground v.1.15,2013-09-02 08:42:00,
2013-09-02 03:47:00,67.7,66.8,29.80,NNW,343,0.0,0.0,97,0.00,,,0.01,Wunderground v.1.15,2013-09-02 08:47:00,
2013-09-02 03:53:00,67.7,66.8,29.80,NNW,343,0.0,0.0,97,0.00,,,0.01,Wunderground v.1.15,2013-09-02 08:53:00,
2013-09-02 03:58:00,67.6,66.7,29.80,NNW,343,0.0,0.0,97,0.00,,,0.01,Wunderground v.1.15,2013-09-02 08:58:00,
2013-09-02 04:04:00,67.6,66.7,29.80,NNW,343,0.0,0.0,97,0.00,,,0.01,Wunderground v.1.15,2013-09-02 09:04:00,
2013-09-02 04:09:00,67.5,66.6,29.80,NNW,343,0.0,0.0,97,0.00,,,0.01,Wunderground v.1.15,2013-09-02 09:09:00,
2013-09-02 04:15:00,67.6,66.7,29.80,NNW,343,0.0,0.0,97,0.00,,,0.01,Wunderground v.1.15,2013-09-02 09:15:00,
2013-09-02 04:20:00,67.6,66.7,29.80,NNW,343,0.0,0.0,97,0.00,,,0.01,Wunderground v.1.15,2013-09-02 09:20:00,
2013-09-02 04:26:00,67.6,66.7,29.80,NNW,343,0.0,0.0,97,0.00,,,0.01,Wunderground v.1.15,2013-09-02 09:26:00,
2013-09-02 04:31:00,67.5,66.6,29.80,NNW,345,0.0,0.0,97,0.00,,,0.01,Wunderground v.1.15,2013-09-02 09:31:00,
2013-09-02 04:36:00,67.5,66.6,29.80,NNW,345,0.0,0.0,97,0.00,,,0.01,Wunderground v.1.15,2013-09-02 09:36:00,
2013-09-02 04:41:00,67.5,66.6,29.80,NNW,345,0.0,0.0,97,0.00,,,0.01,Wunderground v.1.15,2013-09-02 09:41:00,
2013-09-02 04:46:00,67.5,66.6,29.81,NNW,345,0.0,0.0,97,0.00,,,0.01,Wunderground v.1.15,2013-09-02 09:46:00,
2013-09-02 04:51:00,67.4,66.5,29.81,NNW,345,0.0,0.0,97,0.00,,,0.01,Wunderground v.1.15,2013-09-02 09:51:00,
2013-09-02 04:56:00,67.3,66.4,29.81,NNW,345,0.0,0.0,97,0.00,,,0.01,Wunderground v.1.15,2013-09-02 09:56:00,
2013-09-02 05:02:00,67.3,66.4,29.81,NNW,345,0.0,0.0,97,0.00,,,0.01,Wunderground v.1.15,2013-09-02 10:02:00,
2013-09-02 05:07:00,67.4,66.5,29.81,NNW,345,0.0,0.0,97,0.00,,,0.01,Wunderground v.1.15,2013-09-02 10:07:00,
2013-09-02 05:12:00,67.4,66.8,29.81,NNW,343,0.0,0.0,98,0.00,,,0.01,Wunderground v.1.15,2013-09-02 10:12:00,
2013-09-02 05:17:00,67.1,66.2,29.81,NNW,345,0.0,0.0,97,0.00,,,0.01,Wunderground v.1.15,2013-09-02 10:17:00,
2013-09-02 05:22:00,66.8,65.9,29.82,NNW,345,0.0,0.0,97,0.00,,,0.01,Wunderground v.1.15,2013-09-02 10:22:00,
2013-09-02 05:28:00,66.6,65.7,29.81,NNW,345,0.0,0.0,97,0.00,,,0.01,Wunderground v.1.15,2013-09-02 10:28:00,
2013-09-02 05:34:00,66.5,65.6,29.82,NNW,345,0.0,0.0,97,0.00,,,0.01,Wunderground v.1.15,2013-09-02 10:34:00,
2013-09-02 05:39:00,66.6,65.7,29.82,NNW,345,0.0,0.0,97,0.00,,,0.01,Wunderground v.1.15,2013-09-02 10:39:00,
2013-09-02 05:44:00,67.1,66.5,29.82,NNW,345,0.0,0.0,98,0.00,,,0.01,Wunderground v.1.15,2013-09-02 10:44:00,
2013-09-02 05:49:00,67.4,66.8,29.82,NNW,345,0.0,0.0,98,0.00,,,0.01,Wunderground v.1.15,2013-09-02 10:49:00,
2013-09-02 05:54:00,67.5,66.9,29.82,NNW,344,0.0,0.0,98,0.00,,,0.01,Wunderground v.1.15,2013-09-02 10:54:00,
2013-09-02 05:59:00,67.4,66.8,29.82,NNW,345,0.0,0.0,98,0.00,,,0.01,Wunderground v.1.15,2013-09-02 10:59:00,
2013-09-02 06:05:00,67.4,66.8,29.82,NNW,345,0.0,0.0,98,0.00,,,0.01,Wunderground v.1.15,2013-09-02 11:05:00,
2013-09-02 06:11:00,67.4,66.8,29.82,NNW,345,0.0,0.0,98,0.00,,,0.01,Wunderground v.1.15,2013-09-02 11:11:00,
2013-09-02 06:17:00,67.3,66.7,29.83,NNW,345,0.0,0.0,98,0.00,,,0.01,Wunderground v.1.15,2013-09-02 11:17:00,
2013-09-02 06:22:00,67.2,66.6,29.83,NNW,345,0.0,0.0,98,0.00,,,0.01,Wunderground v.1.15,2013-09-02 11:22:00,
2013-09-02 06:27:00,67.0,66.1,29.83,NNW,345,0.0,0.0,97,0.00,,,0.01,Wunderground v.1.15,2013-09-02 11:27:00,
2013-09-02 06:32:00,66.8,66.2,29.83,NNW,345,0.0,0.0,98,0.00,,,0.01,Wunderground v.1.15,2013-09-02 11:32:00,
2013-09-02 06:37:00,66.9,66.3,29.84,NNW,345,0.0,0.0,98,0.00,,,0.01,Wunderground v.1.15,2013-09-02 11:37:00,
2013-09-02 06:43:00,67.0,66.4,29.84,NNW,345,0.0,0.0,98,0.00,,,0.01,Wunderground v.1.15,2013-09-02 11:43:00,
2013-09-02 06:49:00,67.1,66.5,29.84,NNW,345,0.0,0.0,98,0.00,,,0.01,Wunderground v.1.15,2013-09-02 11:49:00,
2013-09-02 06:54:00,67.3,66.7,29.84,NNW,345,0.0,0.0,98,0.00,,,0.01,Wunderground v.1.15,2013-09-02 11:54:00,
2013-09-02 06:59:00,67.5,66.9,29.84,NNW,345,0.0,0.0,98,0.00,,,0.01,Wunderground v.1.15,2013-09-02 11:59:00,
2013-09-02 07:05:00,67.8,67.2,29.84,NNW,345,0.0,0.0,98,0.00,,,0.01,Wunderground v.1.15,2013-09-02 12:05:00,
2013-09-02 07:11:00,68.4,67.8,29.84,NNW,345,0.0,0.0,98,0.00,,,0.01,Wunderground v.1.15,2013-09-02 12:11:00,
2013-09-02 07:17:00,68.8,68.2,29.84,NNW,345,0.0,0.0,98,0.00,,,0.01,Wunderground v.1.15,2013-09-02 12:17:00,
2013-09-02 07:22:00,68.7,68.1,29.85,NNW,345,0.0,0.0,98,0.00,,,0.01,Wunderground v.1.15,2013-09-02 12:22:00,
2013-09-02 07:27:00,68.9,68.3,29.84,NNW,345,0.0,0.0,98,0.00,,,0.01,Wunderground v.1.15,2013-09-02 12:27:00,
2013-09-02 07:32:00,69.5,68.9,29.84,NNW,345,0.0,0.0,98,0.00,,,0.01,Wunderground v.1.15,2013-09-02 12:32:00,
2013-09-02 07:38:00,70.0,69.4,29.85,NNW,345,0.0,0.0,98,0.00,,,0.01,Wunderground v.1.15,2013-09-02 12:38:00,
2013-09-02 07:43:00,70.3,69.7,29.85,WNW,290,0.0,1.0,98,0.00,,,0.01,Wunderground v.1.15,2013-09-02 12:43:00,
2013-09-02 07:48:00,70.7,70.1,29.85,WNW,290,0.0,1.0,98,0.00,,,0.01,Wunderground v.1.15,2013-09-02 12:48:00,
2013-09-02 07:53:00,70.6,70.0,29.85,NW,319,0.0,0.0,98,0.00,,,0.01,Wunderground v.1.15,2013-09-02 12:53:00,
2013-09-02 07:58:00,70.6,70.0,29.85,NW,314,0.0,1.0,98,0.00,,,0.01,Wunderground v.1.15,2013-09-02 12:58:00,
2013-09-02 08:04:00,70.9,70.3,29.85,NNW,336,0.0,0.0,98,0.00,,,0.01,Wunderground v.1.15,2013-09-02 13:04:00,
2013-09-02 08:09:00,71.1,70.2,29.85,WNW,303,0.0,0.0,97,0.00,,,0.01,Wunderground v.1.15,2013-09-02 13:09:00,
2013-09-02 08:14:00,71.5,70.9,29.85,NE,43,0.0,1.0,98,0.00,,,0.01,Wunderground v.1.15,2013-09-02 13:14:00,
2013-09-02 08:19:00,71.6,70.7,29.85,NNW,339,0.0,1.0,97,0.00,,,0.01,Wunderground v.1.15,2013-09-02 13:19:00,
2013-09-02 08:24:00,71.8,70.9,29.85,NW,326,0.0,0.0,97,0.00,,,0.01,Wunderground v.1.15,2013-09-02 13:24:00,
2013-09-02 08:29:00,72.0,71.1,29.85,North,3,0.0,1.0,97,0.00,,,0.01,Wunderground v.1.15,2013-09-02 13:29:00,
2013-09-02 08:34:00,72.4,71.5,29.85,WNW,297,1.0,1.0,97,0.00,,,0.01,Wunderground v.1.15,2013-09-02 13:34:00,
2013-09-02 08:39:00,72.7,71.2,29.85,WNW,297,1.0,2.0,95,0.00,,,0.01,Wunderground v.1.15,2013-09-02 13:39:00,
2013-09-02 08:44:00,73.0,70.9,29.86,NNW,335,2.0,3.0,93,0.00,,,0.01,Wunderground v.1.15,2013-09-02 13:44:00,
2013-09-02 08:49:00,73.3,70.8,29.85,NW,319,2.0,3.0,92,0.00,,,0.01,Wunderground v.1.15,2013-09-02 13:49:00,
2013-09-02 08:54:00,73.9,71.4,29.86,NW,319,2.0,3.0,92,0.00,,,0.01,Wunderground v.1.15,2013-09-02 13:54:00,
2013-09-02 09:00:00,74.4,71.3,29.86,WNW,300,2.0,2.0,90,0.00,,,0.01,Wunderground v.1.15,2013-09-02 14:00:00,
2013-09-02 09:06:00,74.9,71.8,29.86,NNE,27,1.0,2.0,90,0.00,,,0.01,Wunderground v.1.15,2013-09-02 14:06:00,
2013-09-02 09:11:00,75.3,71.2,29.86,WNW,291,1.0,1.0,87,0.00,,,0.01,Wunderground v.1.15,2013-09-02 14:11:00,
2013-09-02 09:16:00,75.7,71.9,29.86,North,1,1.0,4.0,88,0.00,,,0.01,Wunderground v.1.15,2013-09-02 14:16:00,
2013-09-02 09:21:00,75.9,71.4,29.86,NW,311,0.0,0.0,86,0.00,,,0.01,Wunderground v.1.15,2013-09-02 14:21:00,
2013-09-02 09:26:00,76.5,72.3,29.86,WNW,299,0.0,2.0,87,0.00,,,0.01,Wunderground v.1.15,2013-09-02 14:26:00,
2013-09-02 09:31:00,76.8,71.9,29.86,WNW,295,0.0,1.0,85,0.00,,,0.01,Wunderground v.1.15,2013-09-02 14:31:00,
2013-09-02 09:36:00,77.0,71.8,29.86,WNW,288,0.0,1.0,84,0.00,,,0.01,Wunderground v.1.15,2013-09-02 14:36:00,
2013-09-02 09:42:00,77.3,72.1,29.86,West,280,1.0,1.0,84,0.00,,,0.01,Wunderground v.1.15,2013-09-02 14:42:00,
2013-09-02 09:47:00,77.7,72.5,29.86,West,277,1.0,3.0,84,0.00,,,0.01,Wunderground v.1.15,2013-09-02 14:47:00,
2013-09-02 09:52:00,77.9,72.0,29.87,WNW,302,1.0,1.0,82,0.00,,,0.01,Wunderground v.1.15,2013-09-02 14:52:00,
2013-09-02 09:57:00,78.2,71.9,29.87,West,280,0.0,1.0,81,0.00,,,0.01,Wunderground v.1.15,2013-09-02 14:57:00,
2013-09-02 10:03:00,78.6,72.6,29.87,WSW,257,0.0,1.0,82,0.00,,,0.01,Wunderground v.1.15,2013-09-02 15:03:00,
2013-09-02 10:08:00,79.1,72.4,29.87,West,277,1.0,4.0,80,0.00,,,0.01,Wunderground v.1.15,2013-09-02 15:08:00,
2013-09-02 10:13:00,79.2,72.9,29.87,NNW,339,2.0,3.0,81,0.00,,,0.01,Wunderground v.1.15,2013-09-02 15:13:00,
2013-09-02 10:18:00,79.2,72.5,29.87,WNW,300,3.0,5.0,80,0.00,,,0.01,Wunderground v.1.15,2013-09-02 15:18:00,
2013-09-02 10:24:00,79.6,72.9,29.87,NE,48,3.0,4.0,80,0.00,,,0.01,Wunderground v.1.15,2013-09-02 15:24:00,
2013-09-02 10:29:00,79.8,72.7,29.88,NNW,335,2.0,6.0,79,0.00,,,0.01,Wunderground v.1.15,2013-09-02 15:29:00,
2013-09-02 10:34:00,79.9,73.2,29.88,NW,306,3.0,4.0,80,0.00,,,0.01,Wunderground v.1.15,2013-09-02 15:34:00,
2013-09-02 10:39:00,80.0,72.5,29.88,NW,304,4.0,5.0,78,0.00,,,0.01,Wunderground v.1.15,2013-09-02 15:39:00,
2013-09-02 10:44:00,80.1,72.6,29.88,NW,305,4.0,4.0,78,0.00,,,0.01,Wunderground v.1.15,2013-09-02 15:44:00,
2013-09-02 10:49:00,80.2,72.3,29.88,NW,309,3.0,5.0,77,0.00,,,0.01,Wunderground v.1.15,2013-09-02 15:49:00,
2013-09-02 10:54:00,80.3,72.4,29.88,North,359,3.0,5.0,77,0.00,,,0.01,Wunderground v.1.15,2013-09-02 15:54:00,
2013-09-02 11:00:00,80.7,73.2,29.88,NW,308,4.0,5.0,78,0.00,,,0.01,Wunderground v.1.15,2013-09-02 16:00:00,
2013-09-02 11:06:00,81.0,72.7,29.88,NE,46,3.0,5.0,76,0.00,,,0.01,Wunderground v.1.15,2013-09-02 16:06:00,
2013-09-02 11:11:00,81.2,72.5,29.88,NE,34,3.0,6.0,75,0.00,,,0.01,Wunderground v.1.15,2013-09-02 16:11:00,
2013-09-02 11:16:00,81.2,72.9,29.88,NNW,342,3.0,7.0,76,0.00,,,0.01,Wunderground v.1.15,2013-09-02 16:16:00,
2013-09-02 11:21:00,81.3,72.2,29.88,WNW,298,4.0,5.0,74,0.00,,,0.01,Wunderground v.1.15,2013-09-02 16:21:00,
2013-09-02 11:26:00,81.2,72.5,29.88,NW,307,5.0,7.0,75,0.00,,,0.01,Wunderground v.1.15,2013-09-02 16:26:00,
2013-09-02 11:32:00,81.1,72.0,29.89,NW,314,5.0,6.0,74,0.00,,,0.01,Wunderground v.1.15,2013-09-02 16:32:00,
2013-09-02 11:37:00,80.8,71.7,29.88,NW,306,4.0,6.0,74,0.00,,,0.01,Wunderground v.1.15,2013-09-02 16:37:00,
2013-09-02 11:42:00,81.2,73.3,29.88,WNW,301,5.0,7.0,77,0.00,,,0.01,Wunderground v.1.15,2013-09-02 16:42:00,
2013-09-02 11:48:00,81.1,70.8,29.88,WNW,287,5.0,8.0,71,0.00,,,0.01,Wunderground v.1.15,2013-09-02 16:48:00,
2013-09-02 11:53:00,81.3,71.8,29.89,WNW,294,6.0,6.0,73,0.00,,,0.01,Wunderground v.1.15,2013-09-02 16:53:00,
2013-09-02 11:58:00,81.3,69.3,29.88,West,273,6.0,12.0,67,0.00,,,0.01,Wunderground v.1.15,2013-09-02 16:58:00,
2013-09-02 12:03:00,81.8,72.3,29.88,WNW,300,6.0,6.0,73,0.00,,,0.01,Wunderground v.1.15,2013-09-02 17:03:00,
2013-09-02 12:08:00,82.1,70.5,29.88,WNW,285,5.0,7.0,68,0.00,,,0.01,Wunderground v.1.15,2013-09-02 17:08:00,
2013-09-02 12:14:00,82.0,70.0,29.88,North,9,5.0,6.0,67,0.00,,,0.01,Wunderground v.1.15,2013-09-02 17:14:00,
2013-09-02 12:19:00,82.2,71.0,29.88,WNW,296,5.0,8.0,69,0.00,,,0.01,Wunderground v.1.15,2013-09-02 17:19:00,
2013-09-02 12:24:00,82.4,71.2,29.88,NNW,337,4.0,5.0,69,0.00,,,0.01,Wunderground v.1.15,2013-09-02 17:24:00,
2013-09-02 12:29:00,82.8,70.7,29.88,NNW,336,3.0,5.0,67,0.00,,,0.01,Wunderground v.1.15,2013-09-02 17:29:00,
2013-09-02 12:34:00,83.0,71.8,29.88,NW,316,3.0,4.0,69,0.00,,,0.01,Wunderground v.1.15,2013-09-02 17:34:00,
2013-09-02 12:40:00,83.2,70.7,29.88,NNW,341,4.0,4.0,66,0.00,,,0.01,Wunderground v.1.15,2013-09-02 17:40:00,
2013-09-02 12:45:00,83.2,69.8,29.88,WNW,301,4.0,7.0,64,0.00,,,0.01,Wunderground v.1.15,2013-09-02 17:45:00,
2013-09-02 12:50:00,83.2,70.7,29.87,WNW,297,4.0,5.0,66,0.00,,,0.01,Wunderground v.1.15,2013-09-02 17:50:00,
2013-09-02 12:55:00,83.3,69.8,29.88,WNW,295,4.0,6.0,64,0.00,,,0.01,Wunderground v.1.15,2013-09-02 17:55:00,
2013-09-02 13:00:00,83.0,70.0,29.87,North,3,5.0,5.0,65,0.00,,,0.01,Wunderground v.1.15,2013-09-02 18:00:00,
2013-09-02 13:06:00,83.3,70.8,29.87,WNW,287,4.0,5.0,66,0.00,,,0.01,Wunderground v.1.15,2013-09-02 18:06:00,
2013-09-02 13:12:00,83.1,69.2,29.87,NW,308,4.0,4.0,63,0.00,,,0.01,Wunderground v.1.15,2013-09-02 18:12:00,
2013-09-02 13:17:00,82.3,68.4,29.87,WNW,288,4.0,7.0,63,0.00,,,0.01,Wunderground v.1.15,2013-09-02 18:17:00,
2013-09-02 13:22:00,82.4,69.0,29.87,North,354,4.0,6.0,64,0.00,,,0.01,Wunderground v.1.15,2013-09-02 18:22:00,
2013-09-02 13:27:00,82.5,69.5,29.87,WNW,294,4.0,7.0,65,0.00,,,0.01,Wunderground v.1.15,2013-09-02 18:27:00,
2013-09-02 13:33:00,82.8,68.4,29.86,WNW,302,5.0,7.0,62,0.00,,,0.01,Wunderground v.1.15,2013-09-02 18:33:00,
2013-09-02 13:38:00,83.4,69.5,29.86,WNW,297,5.0,7.0,63,0.00,,,0.01,Wunderground v.1.15,2013-09-02 18:38:00,
2013-09-02 13:43:00,83.9,69.0,29.86,NW,320,5.0,5.0,61,0.00,,,0.01,Wunderground v.1.15,2013-09-02 18:43:00,
2013-09-02 13:48:00,84.3,69.4,29.86,NW,325,4.0,6.0,61,0.00,,,0.01,Wunderground v.1.15,2013-09-02 18:48:00,
2013-09-02 13:54:00,83.7,68.8,29.86,WNW,299,4.0,6.0,61,0.00,,,0.01,Wunderground v.1.15,2013-09-02 18:54:00,
2013-09-02 14:00:00,83.8,68.9,29.86,NNW,332,5.0,5.0,61,0.00,,,0.01,Wunderground v.1.15,2013-09-02 19:00:00,
2013-09-02 14:06:00,83.0,68.2,29.86,WNW,288,5.0,9.0,61,0.00,,,0.01,Wunderground v.1.15,2013-09-02 19:06:00,
2013-09-02 14:11:00,83.3,69.4,29.85,West,264,5.0,5.0,63,0.00,,,0.01,Wunderground v.1.15,2013-09-02 19:11:00,
2013-09-02 14:16:00,84.2,68.8,29.85,West,271,4.0,8.0,60,0.00,,,0.01,Wunderground v.1.15,2013-09-02 19:16:00,
2013-09-02 14:21:00,83.9,68.5,29.85,North,6,4.0,4.0,60,0.00,,,0.01,Wunderground v.1.15,2013-09-02 19:21:00,
2013-09-02 14:26:00,83.8,67.4,29.85,WNW,291,4.0,5.0,58,0.00,,,0.01,Wunderground v.1.15,2013-09-02 19:26:00,
2013-09-02 14:31:00,84.1,68.7,29.85,NNW,329,3.0,3.0,60,0.00,,,0.01,Wunderground v.1.15,2013-09-02 19:31:00,
2013-09-02 14:37:00,83.7,68.3,29.85,WNW,288,4.0,9.0,60,0.00,,,0.01,Wunderground v.1.15,2013-09-02 19:37:00,
2013-09-02 14:42:00,83.2,68.8,29.85,WNW,291,4.0,4.0,62,0.00,,,0.01,Wunderground v.1.15,2013-09-02 19:42:00,
2013-09-02 14:47:00,83.9,69.0,29.85,NNW,337,3.0,4.0,61,0.00,,,0.01,Wunderground v.1.15,2013-09-02 19:47:00,
2013-09-02 14:52:00,84.2,68.3,29.85,NNW,345,4.0,6.0,59,0.00,,,0.01,Wunderground v.1.15,2013-09-02 19:52:00,
2013-09-02 14:57:00,83.6,68.7,29.85,WNW,298,4.0,6.0,61,0.00,,,0.01,Wunderground v.1.15,2013-09-02 19:57:00,
2013-09-02 15:03:00,83.9,68.5,29.85,NW,320,3.0,4.0,60,0.00,,,0.01,Wunderground v.1.15,2013-09-02 20:03:00,
2013-09-02 15:08:00,83.8,69.4,29.85,WNW,294,3.0,5.0,62,0.00,,,0.01,Wunderground v.1.15,2013-09-02 20:08:00,
2013-09-02 15:14:00,83.7,68.3,29.85,NNE,16,4.0,6.0,60,0.00,,,0.01,Wunderground v.1.15,2013-09-02 20:14:00,
2013-09-02 15:19:00,83.8,69.9,29.85,NE,43,3.0,6.0,63,0.00,,,0.01,Wunderground v.1.15,2013-09-02 20:19:00,
2013-09-02 15:24:00,84.5,69.6,29.84,WNW,287,3.0,8.0,61,0.00,,,0.01,Wunderground v.1.15,2013-09-02 20:24:00,
2013-09-02 15:30:00,84.8,68.9,29.84,WNW,295,5.0,7.0,59,0.00,,,0.01,Wunderground v.1.15,2013-09-02 20:30:00,
2013-09-02 15:36:00,85.0,68.1,29.84,WNW,296,6.0,8.0,57,0.00,,,0.01,Wunderground v.1.15,2013-09-02 20:36:00,
2013-09-02 15:41:00,85.3,68.8,29.84,NW,307,6.0,6.0,58,0.00,,,0.01,Wunderground v.1.15,2013-09-02 20:41:00,
2013-09-02 15:46:00,85.6,69.1,29.84,North,354,5.0,6.0,58,0.00,,,0.01,Wunderground v.1.15,2013-09-02 20:46:00,
2013-09-02 15:52:00,86.3,69.8,29.84,NW,321,2.0,4.0,58,0.00,,,0.01,Wunderground v.1.15,2013-09-02 20:52:00,
2013-09-02 15:58:00,85.8,67.8,29.84,NW,310,3.0,5.0,55,0.00,,,0.01,Wunderground v.1.15,2013-09-02 20:58:00,
2013-09-02 16:04:00,84.6,68.2,29.84,NW,323,4.0,4.0,58,0.00,,,0.01,Wunderground v.1.15,2013-09-02 21:04:00,
2013-09-02 16:09:00,83.9,67.5,29.84,WNW,300,3.0,4.0,58,0.00,,,0.01,Wunderground v.1.15,2013-09-02 21:09:00,
2013-09-02 16:14:00,83.2,66.9,29.84,WNW,295,4.0,6.0,58,0.00,,,0.01,Wunderground v.1.15,2013-09-02 21:14:00,
2013-09-02 16:20:00,83.5,68.6,29.84,NW,319,3.0,5.0,61,0.00,,,0.01,Wunderground v.1.15,2013-09-02 21:20:00,
2013-09-02 16:25:00,84.4,67.5,29.83,WNW,290,3.0,6.0,57,0.00,,,0.01,Wunderground v.1.15,2013-09-02 21:25:00,
2013-09-02 16:30:00,85.4,68.4,29.83,WNW,301,3.0,7.0,57,0.00,,,0.01,Wunderground v.1.15,2013-09-02 21:30:00,
2013-09-02 16:36:00,85.5,68.0,29.83,NW,311,4.0,7.0,56,0.00,,,0.01,Wunderground v.1.15,2013-09-02 21:36:00,
2013-09-02 16:41:00,85.6,67.6,29.83,NW,325,4.0,8.0,55,0.00,,,0.01,Wunderground v.1.15,2013-09-02 21:41:00,
2013-09-02 16:46:00,85.5,68.0,29.83,WNW,300,5.0,8.0,56,0.00,,,0.01,Wunderground v.1.15,2013-09-02 21:46:00,
2013-09-02 16:51:00,85.8,68.8,29.83,NNW,339,5.0,5.0,57,0.00,,,0.01,Wunderground v.1.15,2013-09-02 21:51:00,
2013-09-02 16:56:00,85.8,68.8,29.83,NW,310,4.0,7.0,57,0.00,,,0.01,Wunderground v.1.15,2013-09-02 21:56:00,
2013-09-02 17:02:00,85.8,67.8,29.83,NE,53,3.0,5.0,55,0.00,,,0.01,Wunderground v.1.15,2013-09-02 22:02:00,
2013-09-02 17:07:00,85.2,67.7,29.84,NNW,338,3.0,6.0,56,0.00,,,0.01,Wunderground v.1.15,2013-09-02 22:07:00,
2013-09-02 17:12:00,85.0,68.6,29.83,NW,316,4.0,4.0,58,0.00,,,0.01,Wunderground v.1.15,2013-09-02 22:12:00,
2013-09-02 17:18:00,85.0,68.6,29.83,NW,316,3.0,5.0,58,0.00,,,0.01,Wunderground v.1.15,2013-09-02 22:18:00,
2013-09-02 17:23:00,85.0,68.1,29.83,NW,312,3.0,3.0,57,0.00,,,0.01,Wunderground v.1.15,2013-09-02 22:23:00,
2013-09-02 17:28:00,85.1,68.2,29.83,WNW,300,4.0,6.0,57,0.00,,,0.01,Wunderground v.1.15,2013-09-02 22:28:00,
2013-09-02 17:34:00,85.1,68.7,29.83,NW,317,4.0,4.0,58,0.00,,,0.01,Wunderground v.1.15,2013-09-02 22:34:00,
2013-09-02 17:39:00,84.8,67.9,29.83,NW,304,4.0,8.0,57,0.00,,,0.01,Wunderground v.1.15,2013-09-02 22:39:00,
2013-09-02 17:44:00,84.4,68.5,29.83,NW,323,4.0,6.0,59,0.00,,,0.01,Wunderground v.1.15,2013-09-02 22:44:00,
2013-09-02 17:49:00,84.0,67.6,29.83,NW,322,4.0,6.0,58,0.00,,,0.01,Wunderground v.1.15,2013-09-02 22:49:00,
2013-09-02 17:54:00,83.5,67.2,29.83,NNW,331,4.0,5.0,58,0.00,,,0.01,Wunderground v.1.15,2013-09-02 22:54:00,
2013-09-02 17:59:00,83.3,67.5,29.83,NNW,344,3.0,5.0,59,0.00,,,0.01,Wunderground v.1.15,2013-09-02 22:59:00,
2013-09-02 18:05:00,83.3,68.0,29.83,NNW,329,2.0,3.0,60,0.00,,,0.01,Wunderground v.1.15,2013-09-02 23:05:00,
2013-09-02 18:10:00,83.5,68.2,29.83,NW,325,2.0,3.0,60,0.00,,,0.01,Wunderground v.1.15,2013-09-02 23:10:00,
2013-09-02 18:15:00,83.4,67.6,29.83,WNW,290,2.0,6.0,59,0.00,,,0.01,Wunderground v.1.15,2013-09-02 23:15:00,
2013-09-02 18:20:00,83.2,68.3,29.83,NW,323,3.0,3.0,61,0.00,,,0.01,Wunderground v.1.15,2013-09-02 23:20:00,
2013-09-02 18:25:00,83.0,67.7,29.84,NW,325,3.0,4.0,60,0.00,,,0.01,Wunderground v.1.15,2013-09-02 23:25:00,
2013-09-02 18:30:00,82.8,68.0,29.84,NW,314,2.0,2.0,61,0.00,,,0.01,Wunderground v.1.15,2013-09-02 23:30:00,
2013-09-02 18:36:00,82.4,67.1,29.84,NW,310,2.0,4.0,60,0.00,,,0.01,Wunderground v.1.15,2013-09-02 23:36:00,
2013-09-02 18:41:00,82.2,68.3,29.84,NW,314,2.0,2.0,63,0.00,,,0.01,Wunderground v.1.15,2013-09-02 23:41:00,
2013-09-02 18:46:00,81.8,67.5,29.84,WNW,291,2.0,3.0,62,0.00,,,0.01,Wunderground v.1.15,2013-09-02 23:46:00,
2013-09-02 18:51:00,81.3,67.0,29.84,WNW,302,2.0,2.0,62,0.00,,,0.01,Wunderground v.1.15,2013-09-02 23:51:00,
2013-09-02 18:56:00,80.9,67.6,29.84,NW,315,2.0,2.0,64,0.00,,,0.01,Wunderground v.1.15,2013-09-02 23:56:00,
2013-09-02 19:02:00,80.3,67.0,29.84,NW,316,1.0,2.0,64,0.00,,,0.01,Wunderground v.1.15,2013-09-03 00:02:00,
2013-09-02 19:07:00,79.9,67.5,29.85,NW,323,0.0,2.0,66,0.00,,,0.01,Wunderground v.1.15,2013-09-03 00:07:00,
2013-09-02 19:12:00,79.3,67.4,29.85,NW,323,0.0,0.0,67,0.00,,,0.01,Wunderground v.1.15,2013-09-03 00:12:00,
2013-09-02 19:17:00,78.5,67.1,29.85,NW,321,0.0,0.0,68,0.00,,,0.01,Wunderground v.1.15,2013-09-03 00:17:00,
2013-09-02 19:23:00,77.5,67.4,29.85,NW,322,0.0,0.0,71,0.00,,,0.01,Wunderground v.1.15,2013-09-03 00:23:00,
2013-09-02 19:28:00,76.7,67.0,29.85,NW,322,0.0,0.0,72,0.00,,,0.01,Wunderground v.1.15,2013-09-03 00:28:00,
2013-09-02 19:33:00,76.1,67.6,29.85,NW,321,0.0,0.0,75,0.00,,,0.01,Wunderground v.1.15,2013-09-03 00:33:00,
2013-09-02 19:38:00,75.4,67.3,29.86,NW,321,0.0,0.0,76,0.00,,,0.01,Wunderground v.1.15,2013-09-03 00:38:00,
2013-09-02 19:43:00,74.8,67.1,29.86,NW,321,0.0,0.0,77,0.00,,,0.01,Wunderground v.1.15,2013-09-03 00:43:00,
2013-09-02 19:49:00,74.4,67.1,29.86,NW,322,0.0,0.0,78,0.00,,,0.01,Wunderground v.1.15,2013-09-03 00:49:00,
2013-09-02 19:54:00,73.9,67.0,29.86,NW,322,0.0,0.0,79,0.00,,,0.01,Wunderground v.1.15,2013-09-03 00:54:00,
2013-09-02 19:59:00,73.5,66.9,29.86,NW,322,0.0,0.0,80,0.00,,,0.01,Wunderground v.1.15,2013-09-03 00:59:00,
2013-09-02 20:05:00,73.1,66.6,29.87,NW,322,0.0,0.0,80,0.00,,,0.01,Wunderground v.1.15,2013-09-03 01:05:00,
2013-09-02 20:10:00,72.9,66.4,29.87,NW,322,0.0,0.0,80,0.00,,,0.01,Wunderground v.1.15,2013-09-03 01:10:00,
2013-09-02 20:15:00,72.8,66.3,29.87,NW,316,0.0,0.0,80,0.00,,,0.01,Wunderground v.1.15,2013-09-03 01:15:00,
2013-09-02 20:20:00,72.6,66.4,29.87,NW,316,0.0,0.0,81,0.00,,,0.01,Wunderground v.1.15,2013-09-03 01:20:00,
2013-09-02 20:26:00,72.4,66.2,29.88,NW,316,0.0,0.0,81,0.00,,,0.01,Wunderground v.1.15,2013-09-03 01:26:00,
2013-09-02 20:32:00,72.1,66.3,29.87,NW,316,0.0,0.0,82,0.00,,,0.01,Wunderground v.1.15,2013-09-03 01:32:00,
2013-09-02 20:38:00,71.8,66.4,29.88,NW,316,0.0,0.0,83,0.00,,,0.01,Wunderground v.1.15,2013-09-03 01:38:00,
2013-09-02 20:43:00,71.5,66.4,29.88,NW,316,0.0,0.0,84,0.00,,,0.01,Wunderground v.1.15,2013-09-03 01:43:00,
2013-09-02 20:48:00,71.4,66.3,29.88,NW,316,0.0,0.0,84,0.00,,,0.01,Wunderground v.1.15,2013-09-03 01:48:00,
2013-09-02 20:53:00,71.3,66.2,29.88,NW,316,0.0,0.0,84,0.00,,,0.01,Wunderground v.1.15,2013-09-03 01:53:00,
2013-09-02 20:59:00,71.2,66.5,29.88,NW,316,0.0,0.0,85,0.00,,,0.01,Wunderground v.1.15,2013-09-03 01:59:00,
2013-09-02 21:05:00,70.8,66.4,29.88,NW,316,0.0,0.0,86,0.00,,,0.01,Wunderground v.1.15,2013-09-03 02:05:00,
2013-09-02 21:10:00,70.4,66.0,29.89,NW,316,0.0,0.0,86,0.00,,,0.01,Wunderground v.1.15,2013-09-03 02:10:00,
2013-09-02 21:15:00,70.1,65.7,29.89,NW,316,0.0,0.0,86,0.00,,,0.01,Wunderground v.1.15,2013-09-03 02:15:00,
2013-09-02 21:20:00,70.0,65.6,29.89,NW,316,0.0,0.0,86,0.00,,,0.01,Wunderground v.1.15,2013-09-03 02:20:00,
2013-09-02 21:26:00,69.9,65.5,29.89,NW,316,0.0,0.0,86,0.00,,,0.01,Wunderground v.1.15,2013-09-03 02:26:00,
2013-09-02 21:31:00,70.2,65.8,29.89,NW,316,0.0,0.0,86,0.00,,,0.01,Wunderground v.1.15,2013-09-03 02:31:00,
2013-09-02 21:36:00,70.3,65.6,29.89,NW,316,0.0,0.0,85,0.00,,,0.01,Wunderground v.1.15,2013-09-03 02:36:00,
2013-09-02 21:42:00,70.5,65.8,29.89,NW,316,0.0,0.0,85,0.00,,,0.01,Wunderground v.1.15,2013-09-03 02:42:00,
2013-09-02 21:47:00,70.2,65.8,29.89,NW,316,0.0,0.0,86,0.00,,,0.01,Wunderground v.1.15,2013-09-03 02:47:00,
2013-09-02 21:52:00,69.8,65.4,29.89,NW,316,0.0,0.0,86,0.00,,,0.01,Wunderground v.1.15,2013-09-03 02:52:00,
2013-09-02 21:58:00,69.7,65.3,29.89,NW,316,0.0,0.0,86,0.00,,,0.01,Wunderground v.1.15,2013-09-03 02:58:00,
2013-09-02 22:04:00,69.6,65.2,29.89,NW,316,0.0,0.0,86,0.00,,,0.01,Wunderground v.1.15,2013-09-03 03:04:00,
2013-09-02 22:09:00,69.4,65.4,29.89,NW,316,0.0,0.0,87,0.00,,,0.01,Wunderground v.1.15,2013-09-03 03:09:00,
2013-09-02 22:14:00,69.2,65.2,29.89,NW,316,0.0,0.0,87,0.00,,,0.01,Wunderground v.1.15,2013-09-03 03:14:00,
2013-09-02 22:19:00,69.1,65.1,29.89,NW,316,0.0,0.0,87,0.00,,,0.01,Wunderground v.1.15,2013-09-03 03:19:00,
2013-09-02 22:24:00,68.9,65.2,29.90,NW,316,0.0,0.0,88,0.00,,,0.01,Wunderground v.1.15,2013-09-03 03:24:00,
2013-09-02 22:30:00,68.6,64.9,29.90,NW,316,0.0,0.0,88,0.00,,,0.01,Wunderground v.1.15,2013-09-03 03:30:00,
2013-09-02 22:35:00,68.2,64.5,29.89,NW,316,0.0,0.0,88,0.00,,,0.01,Wunderground v.1.15,2013-09-03 03:35:00,
2013-09-02 22:41:00,67.7,64.3,29.90,NW,316,0.0,0.0,89,0.00,,,0.01,Wunderground v.1.15,2013-09-03 03:41:00,
2013-09-02 22:46:00,67.4,64.0,29.90,NW,316,0.0,0.0,89,0.00,,,0.01,Wunderground v.1.15,2013-09-03 03:46:00,
2013-09-02 22:51:00,67.1,64.1,29.90,NW,316,0.0,0.0,90,0.00,,,0.01,Wunderground v.1.15,2013-09-03 03:51:00,
2013-09-02 22:56:00,67.1,64.4,29.90,NW,316,0.0,0.0,91,0.00,,,0.01,Wunderground v.1.15,2013-09-03 03:56:00,
2013-09-02 23:01:00,67.3,64.6,29.90,NW,316,0.0,0.0,91,0.00,,,0.01,Wunderground v.1.15,2013-09-03 04:01:00,
2013-09-02 23:02:00,67.3,64.6,29.90,NW,316,0.0,0.0,91,0.00,,,0.01,Wunderground v.1.15,2013-09-03 04:02:00,
2013-09-02 23:06:00,67.4,64.4,29.90,NW,316,0.0,0.0,90,0.00,,,0.01,Wunderground v.1.15,2013-09-03 04:06:00,
2013-09-02 23:08:00,67.4,64.4,29.90,NW,316,0.0,0.0,90,0.00,,,0.01,Wunderground v.1.15,2013-09-03 04:08:00,
2013-09-02 23:14:00,67.1,64.1,29.90,NW,316,0.0,0.0,90,0.00,,,0.01,Wunderground v.1.15,2013-09-03 04:14:00,
2013-09-02 23:17:00,66.9,63.9,29.90,NW,316,0.0,0.0,90,0.00,,,0.01,Wunderground v.1.15,2013-09-03 04:17:00,
2013-09-02 23:22:00,66.7,64.0,29.90,NW,316,0.0,0.0,91,0.00,,,0.01,Wunderground v.1.15,2013-09-03 04:22:00,
2013-09-02 23:24:00,66.6,63.9,29.90,NW,316,0.0,0.0,91,0.00,,,0.01,Wunderground v.1.15,2013-09-03 04:24:00,
2013-09-02 23:29:00,66.7,64.0,29.90,NW,316,0.0,0.0,91,0.00,,,0.01,Wunderground v.1.15,2013-09-03 04:29:00,
2013-09-02 23:35:00,66.7,64.0,29.90,NW,316,0.0,0.0,91,0.00,,,0.01,Wunderground v.1.15,2013-09-03 04:35:00,
2013-09-02 23:40:00,66.7,64.0,29.90,NW,316,0.0,0.0,91,0.00,,,0.01,Wunderground v.1.15,2013-09-03 04:40:00,
2013-09-02 23:45:00,66.7,64.0,29.90,NW,316,0.0,0.0,91,0.00,,,0.01,Wunderground v.1.15,2013-09-03 04:45:00,
2013-09-02 23:50:00,66.6,63.9,29.90,NW,316,0.0,0.0,91,0.00,,,0.01,Wunderground v.1.15,2013-09-03 04:50:00,
2013-09-02 23:55:00,66.5,63.8,29.90,NW,316,0.0,0.0,91,0.00,,,0.01,Wunderground v.1.15,2013-09-03 04:55:00,